851  
ASUS42 KMHX 201026  
RWRMHX  
WEATHER ROUNDUP FOR EASTERN NORTH CAROLINA  
NATIONAL WEATHER SERVICE NEWPORT/MOREHEAD CITY NC  
500 AM EST THU FEB 20 2020  
 
NOTE: "FAIR" INDICATES FEW OR NO CLOUDS BELOW 12,000 FEET  
WITH NO SIGNIFICANT WEATHER AND/OR S TO VISIBILITY
 
 
NCZ015>017-031-032-045>047-102-103-201100-  
NORTH COAST  
 
CITY SKY/WX TMP DP RH WIND PRES REMARKS
 
EDENTON NOT AVBL  
ELIZABETH CITY CLOUDY 44 34 67 N7 30.40R  
KITTY HAWK CLOUDY 46 31 56 N5 30.38R  
MANTEO CLOUDY 46 31 54 NE12 30.39R  
 

 
 
NCZ045>047-081-094-103-104-201100-  
CENTRAL COAST  
 
CITY SKY/WX TMP DP RH WIND PRES REMARKS
 
FRISCO CLOUDY 50 33 52 NE12G21 30.34F  
 

 
 
NCZ095-097-098-100-101-201100-  
SOUTHERN COAST  
 
CITY SKY/WX TMP DP RH WIND PRES REMARKS
 
BEAUFORT CLOUDY 49 34 56 NE14 30.33F  
CEDAR ISLAND NOT AVBL  
JACKSONVILLE CLOUDY 48 28 46 NE10 30.34S  
PINEY ISLAND CLOUDY 50 32 50 NE16G22 30.35R  
WILMINGTON CLOUDY 47 29 49 NE15 30.32F  
 

 
 
NCZ011>013-027>030-043-044-078>080-089-090>093-098-201100-  
COASTAL PLAIN  
 
CITY SKY/WX TMP DP RH WIND PRES REMARKS
 
AHOSKIE NOT AVBL  
CLINTON NOT AVBL  
ELIZABETHTOWN CLOUDY 46 30 52 NE7 30.34R  
GOLDSBORO CLOUDY 44 32 61 NE5 30.34S  
GREENVILLE NOT AVBL  
HAVELOCK CLOUDY 49 30 48 NE15 30.35S  
KENANSVILLE NOT AVBL  
KINSTON CLOUDY 45 33 63 NE5 30.37S  
NEW BERN CLOUDY 46 28 49 NE10 30.36S  
RICHLANDS CLOUDY 45 32 60 NE9 30.34F  
ROCKY MOUNT MOCLDY 39 34 82 NE5 30.37S  
WASHINGTON NOT AVBL  
WHITEVILLE CLOUDY 47 29 49 NE8 30.31S  
 

 
 
AMZ130-135-150-152-154-156-158-170-250-252-270-ANZ085-086-088-633-658-670-201100-  
MARINE OBSERVATIONS  
 
STATION/POSITION TIME TEMP WIND PRES WAVE SWELL
 
AIR SEA DIR/SP/G HT/PER HT/PER  
(UTC) (F) (DEG/KT/KT) (MB) (FT/S) (FT/S)  
64 E VA BEACH 0950 49 51 10/ 14/ 17 1029.0 4/ 8 3/ 8  
DUCK 0942 47 30/ 16/ 18 1028.2  
2 E DUCK 1000 48 N/A 3/10 2/17  
10 NE DUCK 0930 48 N/A 3/ 9 2/17  
OREGON INLET 0942 47 48 20/ 11/ 15 1028.2  
13E OREGON INLT NOT AVBL  
HATTERAS CG 0942 49 52 40/ 13/ 20 1027.3  
DIAMOND BUOY 1000 55 77 30/ 23/ 29 1026.1  
CAPE LOOKOUT 1000 51 30/ 22/ 25 1027.3  
BEAUFORT LAB 0942 48 54 40/ 7/ 12 1027.2  
30 SE NEW RVR IN 0908 53 61 60/ 21/ 29 1025.5  
30 SE NEW RVR IN 1000 61 N/A 6/ 6 2/11  
27 SE WRIGHTSVLE 0908 51 62 50/ 21/ 27 1024.5  
5 SE WRIGHTSVLE 0908 50 55 50/ 19/ 27 1025.9  
27 SE WRIGHTSVL 0908 51 62 50/ 21/ 27 1024.5  
FRYING PAN BUOY 1000 57 67 30/ 25/ 31 1024.4  
225 S CAPE HAT 1010 66 60/ 17/ 23 1021.4  
41 SE CHARLESTON 1000 67 1022.8  
 

 
 
 
CLICK HERE TO GO TO PREVIOUS BULLETINS.

The Nexlab NC Page Main Text Page